TimeCDT,TemperatureF,Dew PointF,Humidity,Sea Level PressureIn,VisibilityMPH,Wind Direction,Wind SpeedMPH,Gust SpeedMPH,PrecipitationIn,Events,Conditions,WindDirDegrees,DateUTC
12:54 AM,57.9,37.0,46,30.04,10.0,South,11.5,-,N/A,,Overcast,180,2011-11-02 05:54:00
1:54 AM,57.9,37.0,46,30.04,10.0,South,17.3,-,N/A,,Mostly Cloudy,180,2011-11-02 06:54:00
2:54 AM,55.9,37.9,51,30.04,10.0,South,13.8,-,N/A,,Overcast,180,2011-11-02 07:54:00
3:54 AM,55.9,37.9,51,30.03,10.0,South,13.8,-,N/A,,Clear,180,2011-11-02 08:54:00
4:54 AM,55.0,39.0,55,30.04,10.0,South,13.8,-,N/A,,Clear,180,2011-11-02 09:54:00
5:54 AM,54.0,39.0,57,30.04,10.0,South,12.7,-,N/A,,Partly Cloudy,180,2011-11-02 10:54:00
6:54 AM,55.0,39.0,55,30.03,10.0,South,11.5,-,N/A,,Overcast,170,2011-11-02 11:54:00
7:54 AM,53.1,39.0,59,30.04,10.0,SSE,10.4,-,N/A,,Clear,160,2011-11-02 12:54:00
8:54 AM,55.9,39.9,55,30.05,10.0,South,13.8,-,N/A,,Overcast,170,2011-11-02 13:54:00
9:54 AM,60.1,39.9,47,30.04,10.0,South,16.1,23.0,N/A,,Mostly Cloudy,170,2011-11-02 14:54:00
10:54 AM,63.0,43.0,48,30.03,10.0,South,10.4,19.6,N/A,,Overcast,180,2011-11-02 15:54:00
11:54 AM,66.9,46.0,47,29.99,10.0,South,13.8,25.3,N/A,,Mostly Cloudy,180,2011-11-02 16:54:00
12:54 PM,71.6,48.2,43,29.96,10.0,South,11.5,-,N/A,,Clear,170,2011-11-02 17:54:00
1:54 PM,73.4,48.2,41,29.93,10.0,South,9.2,18.4,N/A,,Partly Cloudy,190,2011-11-02 18:54:00
2:54 PM,73.9,48.9,41,29.91,10.0,SSW,11.5,20.7,N/A,,Scattered Clouds,200,2011-11-02 19:54:00
3:54 PM,73.0,50.0,44,29.89,10.0,South,10.4,-,N/A,,Partly Cloudy,180,2011-11-02 20:54:00
4:54 PM,71.1,48.9,45,29.90,10.0,SW,12.7,-,N/A,,Overcast,220,2011-11-02 21:54:00
5:54 PM,68.0,48.0,49,29.90,10.0,SSW,6.9,-,N/A,,Overcast,200,2011-11-02 22:54:00
6:54 PM,66.9,44.1,44,29.90,10.0,South,8.1,-,N/A,,Overcast,180,2011-11-02 23:54:00
7:54 PM,57.9,46.9,67,29.86,10.0,NE,9.2,-,N/A,,Mostly Cloudy,40,2011-11-03 00:54:00
8:54 PM,55.9,46.0,69,29.85,10.0,North,12.7,-,N/A,,Overcast,360,2011-11-03 01:54:00
9:54 PM,48.0,46.9,96,29.91,6.0,North,18.4,28.8,0.04,Rain,Light Rain,360,2011-11-03 02:54:00
10:54 PM,46.9,45.0,93,29.89,10.0,North,21.9,-,0.00,Rain,Light Rain,10,2011-11-03 03:54:00
11:01 PM,46.4,44.6,93,29.90,6.0,North,19.6,-,0.01,Rain,Rain,360,2011-11-03 04:01:00
11:34 PM,44.6,42.8,93,29.92,6.0,North,17.3,25.3,0.08,Rain,Rain,350,2011-11-03 04:34:00
11:54 PM,43.0,42.1,97,29.92,5.0,North,20.7,26.5,0.18,Rain,Heavy Rain,360,2011-11-03 04:54:00